Location: ?????
(35.8129°N, 43.4670°E)
Time: 20:13:09
(UTC+00:00)

Daily predictions for brighter satellites

Satellite Brightness Start Highest point End
(mag) Time Altitude Azimuth Time Altitude Azimuth Time Altitude Azimuth
CZ-4C R/B 3.1 15:10:42 10° SSE 15:14:03 20° ESE 15:17:43 10° ENE
Okean 1 Rocket 3.9 15:10:16 10° SSE 15:14:09 30° E 15:18:03 10° NNE
Cosmos 1707 2.9 15:12:52 10° N 15:16:43 81° W 15:20:32 10° S
SL-24 R/B 4.3 15:16:29 10° SSE 15:20:59 75° ENE 15:26:00 10° N
Cosmos 1340 Rocket 4.1 15:19:34 10° SE 15:22:27 20° E 15:25:21 10° NE
YAOGAN 1 3.1 15:20:46 10° SE 15:24:43 37° ENE 15:28:42 10° N
Cosmos 494 Rocket 4.0 15:22:26 10° N 15:27:40 64° ENE 15:32:52 10° SSE
Meteor 1-15 Rocket 4.2 15:22:12 10° S 15:27:48 67° E 15:33:31 10° NNE
Cosmos 2034 Rocket 4.0 15:25:04 10° S 15:31:25 80° E 15:37:44 10° N
SeaSat 1 4.0 15:28:25 10° S 15:33:00 38° WSW 15:37:36 10° NW
ARGOS 4.3 15:29:22 10° ESE 15:33:29 23° ENE 15:37:38 10° NNE
Cosmos 1048 Rocket 4.5 15:29:16 10° NNW 15:34:36 69° WSW 15:39:55 10° S
CREW DRAGON DEMO-1 DEB 3.2 15:31:38 10° NW 15:34:37 62° SW 15:37:36 10° SE
CENTAUR R/B 3.3 15:26:18 10° NNW 15:34:41 81° ENE 15:43:35 10° SSE
NOSS 3-4 (A) 4.2 15:29:41 10° SW 15:35:24 54° NW 15:41:27 10° NNE
NOSS 3-4 (C) 4.1 15:29:46 10° SW 15:35:29 55° NW 15:41:33 10° NNE
NOSS 3-2 (C) 4.2 15:29:07 10° NNW 15:37:02 86° ENE 15:45:44 10° SSE
Cosmos 1674 2.9 15:33:32 10° N 15:37:15 49° E 15:40:56 10° SSE
Helios 1A Rocket 3.0 15:33:10 10° S 15:37:16 82° WSW 15:41:27 10° NNW
Cosmos 1536 Rocket 3.5 15:34:13 10° N 15:38:42 82° E 15:43:11 10° S
CZ-4 R/B 1.4 15:35:48 10° SSE 15:39:58 69° ENE 15:44:04 10° N
APEX 3.9 15:38:22 10° SSE 15:40:49 22° ESE 15:43:36 10° NE
CZ-2C R/B 3.9 15:38:40 10° NE 15:42:46 20° E 15:46:50 10° SE
MOS 1 Rocket 3.4 15:42:56 10° NNE 15:47:00 42° E 15:51:05 10° S
ATLAS 3B R/B 3.4 15:46:28 10° NNW 15:52:48 36° NE 15:57:16 19° ESE
Cosmos 1634 Rocket 4.1 15:47:27 10° SSE 15:53:22 50° E 15:59:19 10° NNE
DMSP B5D1-3 4.4 15:48:38 10° NNE 15:53:46 80° ESE 15:58:52 10° S
SL-8 R/B 3.9 15:51:59 10° WSW 15:56:48 74° NW 16:01:04 13° NE
Shenzhou-11 Module 3.5 15:56:07 10° NNW 15:57:12 14° N 15:57:12 14° N
ATLAS 2AS CENTAUR R/B 3.9 15:49:54 10° SW 15:57:34 53° NW 16:05:19 10° NNE
Cosmos 1766 3.2 15:53:44 10° S 15:57:40 89° ENE 16:01:38 10° N
Cosmos 1626 2.7 15:54:38 10° NNE 15:58:00 33° E 15:59:16 26° ESE
Meteor 2-5 Rocket 3.8 15:55:35 10° N 16:01:17 60° E 16:07:05 10° SSE
Aureole 2 Rocket 3.4 15:58:21 10° SW 16:01:32 45° WNW 16:04:42 10° N
SL-14 R/B 3.9 15:58:39 10° NNE 16:02:19 34° E 16:03:31 28° ESE
USA 116 4.3 15:59:07 10° N 16:03:18 70° WNW 16:08:00 10° SSW
Cosmos 1733 3.2 16:00:09 10° S 16:03:58 84° W 16:07:48 10° N
Cosmos 2195 Rocket 4.4 16:01:20 10° N 16:07:27 61° E 16:13:28 10° SSE
SL-08 RB Rocket 4.5 16:06:44 28° E 16:07:29 30° ENE 16:11:24 10° N
RESURS DK-1 2.3 16:04:12 10° SSW 16:08:19 89° NW 16:12:29 10° NNE
Cosmos 2026 Rocket 4.1 16:02:49 10° N 16:09:02 53° E 16:15:12 10° SSE
Abrixas rocket 3.7 16:06:36 10° WNW 16:09:05 27° SW 16:10:25 18° S
Cosmos 1269 Rocket 4.0 16:09:07 10° NNW 16:14:27 88° WSW 16:19:45 10° SSE
Cosmos 2082 Rocket 3.2 16:10:28 10° N 16:15:09 26° ENE 16:15:43 26° ENE
SJ-11-01 4.2 16:12:01 10° SSE 16:16:43 86° ENE 16:21:25 10° N
Cosmos 1092 Rocket 3.9 16:10:37 10° N 16:16:51 83° E 16:23:07 10° S
COSMOS 2455 2.7 16:11:03 10° SSW 16:17:01 71° ESE 16:23:02 10° NNE
Cosmos 1627 Rocket 4.4 16:13:41 10° N 16:20:05 70° E 16:26:23 10° SSE
CZ-2C R/B 3.5 16:15:01 10° S 16:20:24 71° W 16:26:06 10° NNW
Cosmos 2279 Rocket 4.1 16:16:13 10° SSE 16:22:13 53° E 16:28:17 10° NNE
Okean-O 4.4 16:18:22 10° SSW 16:22:20 32° W 16:26:20 10° NNW
H-2A R/B 1.9 16:17:44 10° SSE 16:22:45 90° ENE 16:27:57 10° NNW
X-37B 2.0 16:22:59 10° SW 16:24:52 29° SSW 16:24:52 29° SSW
Cosmos 1455 Rocket 2.9 16:26:00 10° S 16:30:19 61° E 16:34:37 10° NNE
Cosmos 2278 Rocket 3.3 16:34:02 10° SW 16:39:26 45° WNW 16:44:51 10° N
DMSP B5D2-2 4.0 16:36:04 10° NNE 16:41:18 60° E 16:46:28 10° S
ISS -0.8 16:48:09 10° N 16:48:11 10° N 16:48:11 10° N
Cosmos 1833 Rocket 2.6 16:47:42 10° NNW 16:53:23 82° WSW 16:54:52 51° S
Milstar 3 Cent rocket 3.0 16:47:34 10° W 16:55:43 43° SSW 16:56:37 40° S
Cosmos 2251 Rocket 3.9 16:50:47 10° N 16:55:08 51° NNE 16:55:08 51° NNE
COSMOS 2406 3.9 16:53:48 10° NNW 16:59:17 52° WSW 17:02:16 26° S
CZ-4C R/B 3.1 16:57:25 10° WSW 17:01:57 42° NW 17:07:17 10° NNE
Okean 1-7 Rocket 4.5 16:57:38 10° N 17:00:43 43° N 17:00:43 43° N
Intelsat 5-1 Rocket 4.5 16:43:15 10° WSW 17:02:40 42° S 17:05:10 36° SSE
BREEZE-M TANK 4.3 17:03:42 10° WNW 17:09:37 28° NNW 17:10:08 27° N
Lacrosse 4 Rocket 2.9 17:06:35 10° NNW 17:08:55 33° NW 17:08:55 33° NW
ARGOS 4.3 17:09:22 15° SSW 17:13:27 40° W 17:18:30 10° NNW
Lacrosse 5 rocket 3.5 17:09:27 10° NNW 17:11:20 21° N 17:11:20 21° N
MOS 1 4.4 17:20:23 74° WNW 17:20:23 74° WNW 17:25:49 10° NNW
CZ-2C R/B 3.6 17:17:50 10° N 17:23:13 47° WNW 17:28:32 10° SW
Ariane Rocket 3.7 17:26:01 50° WNW 17:26:01 50° WNW 17:30:21 10° NNW
ATLAS 3B R/B 3.6 17:37:00 10° NW 17:43:32 44° WSW 17:44:35 41° SW
Cosmos 2082 Rocket 3.8 17:54:07 10° NW 17:57:36 31° WNW 17:57:36 31° WNW
ATLAS 2AS CENTAUR R/B 4.1 23:37:07 30° ESE 23:37:07 30° ESE 23:40:38 10° ESE
